RH
82 80 100 79 52 100 100 98 72 68 23 14 44 84 10 10 22 24 17 23 22 7 6 5 4 6 9 11 13 14 13 12 12 12 12 11 10 8 8 8 9 8 7 7 8
80 88 60 87 56 100 100 100 86 60 27 18 38 100 29 16 26 29 23 24 29 8 7 6 6 6 8 10 13 14 14 13 13 12 12 11 10 8 8 9 9 8 7 11 16
70 91 97 89 89 100 100 100 91 71 34 24 29 97 78 25 31 31 22 27 34 13 8 8 7 6 7 8 12 14 14 14 13 12 12 11 10 8 8 9 8 9 18 24 24
47 60 93 97 89 100 100 100 92 73 41 27 71 99 85 29 42 32 21 35 38 24 9 9 8 7 6 7 10 13 13 13 13 12 11 11 8 8 8 8 10 20 26 25 25
37 50 88 92 100 99 100 100 100 74 47 30 43 94 92 42 39 34 21 33 50 34 12 10 9 8 7 7 8 9 10 11 11 10 10 9 7 8 8 12 21 28 26 24 24
76 69 78 100 100 99 100 100 94 54 61 48 54 100 100 56 42 38 23 24 59 43 18 10 10 9 8 8 8 9 9 9 9 9 8 8 8 8 16 22 29 27 23 21 13
62 68 100 100 100 100 96 100 63 52 66 48 82 100 100 84 50 41 24 18 51 60 27 13 10 10 9 8 8 8 9 8 8 8 8 8 10 23 26 30 26 21 15 8 9
36 82 83 100 100 100 98 85 43 45 98 100 98 91 86 78 63 46 25 19 37 58 51 21 11 10 10 10 9 8 8 8 8 8 10 17 30 30 29 21 15 13 10 7 8
46 56 83 100 100 100 96 83 58 52 56 100 98 68 76 80 74 50 26 16 31 55 58 49 28 15 11 9 9 8 8 8 10 18 29 32 29 25 15 11 9 8 8 7 7
51 72 86 97 100 99 83 64 60 44 98 100 100 80 82 72 78 56 29 16 22 49 56 54 46 40 33 23 19 17 22 27 31 35 35 28 14 10 8 8 8 8 7 6 6
77 63 65 68 76 75 51 52 74 88 91 100 100 99 78 66 75 62 33 15 16 37 53 54 50 51 42 34 30 32 33 35 36 26 15 10 9 8 10 10 9 8 7 6 7
99 72 40 43 50 46 59 91 97 86 93 95 97 100 89 72 61 64 38 17 12 20 45 52 62 58 49 45 42 37 37 28 17 12 11 11 10 12 14 12 10 8 8 9 9
74 62 48 35 42 72 96 100 100 92 74 96 90 100 67 75 78 68 48 22 12 11 21 36 38 40 36 34 22 13 10 10 10 11 12 13 14 12 15 18 18 16 14 13 14
58 55 46 64 73 86 73 76 98 100 98 82 85 94 62 61 70 74 62 35 18 11 10 10 10 7 7 7 8 8 9 10 13 16 19 20 19 19 16 14 13 10 7 8 13
53 53 65 86 67 70 77 60 61 79 69 88 81 53 52 54 50 68 69 56 32 20 14 12 12 11 10 11 12 14 16 20 22 25 27 22 12 9 6 6 5 4 3 5 8
65 63 55 57 68 67 64 82 76 61 52 65 65 52 48 52 49 60 72 61 48 36 26 21 18 18 18 20 24 27 30 30 23 10 6 6 5 7 5 4 4 4 6 8 8
42 58 62 66 53 57 58 52 48 44 44 45 44 41 37 40 46 66 76 66 55 52 47 40 35 36 36 37 36 34 23 11 6 6 6 6 5 4 4 4 4 4 6 8 11
19 36 52 55 52 32 34 43 41 35 31 26 25 26 28 30 36 44 61 62 58 58 54 56 45 45 40 34 20 11 6 6 6 6 5 4 4 5 5 4 4 5 6 7 8
10 17 31 36 43 31 25 23 23 24 27 22 23 25 22 26 27 32 44 51 54 50 46 39 35 19 14 9 7 7 7 8 8 5 4 6 9 9 8 8 9 10 11 11 12
14 10 14 24 36 35 32 27 21 23 19 20 19 16 17 18 16 17 18 18 19 14 13 10 9 6 6 5 6 6 8 7 5 6 10 11 12 9 8 8 7 6 6 7 8
14 14 14 9 16 23 33 28 30 28 25 23 18 16 12 10 10 9 9 8 8 7 7 6 7 9 7 6 6 7 7 5 8 10 7 6 7 7 7 7 7 8 7 7 7
14 14 14 15 13 9 13 16 14 15 22 26 30 28 27 21 18 15 16 14 11 10 10 9 9 9 9 8 8 8 5 9 9 8 7 6 7 7 8 11 16 18 20 21 22
11 14 14 13 14 15 15 10 9 11 15 17 18 20 24 25 23 21 19 18 16 16 15 15 14 13 12 11 8 6 10 7 8 9 10 12 12 15 17 20 21 23 26 28 28
70 37 10 13 14 13 11 12 14 15 13 10 9 11 14 15 15 15 14 12 12 11 9 8 7 7 6 6 8 9 6 8 10 12 15 18 19 20 25 28 33 41 38 38 42
58 63 66 16 9 12 13 11 10 10 10 11 12 14 14 13 12 11 11 10 11 12 12 12 12 12 10 8 8 8 10 13 15 17 21 21 25 27 30 31 30 36 43 43 53
24 45 59 71 64 17 7 11 12 11 10 10 9 10 10 10 10 10 10 10 10 9 8 8 9 9 12 11 12 14 16 19 22 23 23 24 24 26 26 29 28 38 46 48 56
9 19 32 57 58 67 62 19 8 7 8 9 9 8 9 9 9 10 11 12 12 14 14 15 16 17 17 18 19 20 20 21 20 21 21 20 20 20 24 34 42 54 56 56 58
Wind_Speed
20 16 8 18 33 42 41 42 44 44 45 42 53 39 61 61 62 61 59 57 57 57 55 53 53 53 50 46 42 40 37 34 31 28 25 24 23 22 21 22 23 24 26 27 27
37 28 14 13 24 30 39 41 39 45 46 41 51 42 55 61 63 61 61 60 58 57 54 52 51 53 51 48 44 41 38 35 32 29 28 26 25 24 24 25 27 27 28 27 26
25 24 24 11 16 25 37 40 39 46 47 41 44 37 41 59 62 61 60 60 58 57 55 51 50 50 50 48 45 41 39 36 32 31 29 28 27 27 27 27 28 29 25 27 30
24 22 16 12 12 29 34 36 40 47 48 43 53 33 41 55 59 60 58 58 57 55 53 51 49 48 48 48 45 41 39 36 34 32 31 30 29 29 29 29 29 26 28 31 32
24 18 18 14 18 28 29 32 42 48 47 42 48 25 32 53 56 57 56 55 54 52 50 49 47 45 45 44 44 42 39 38 35 34 32 32 31 31 31 31 28 29 31 30 31
23 22 16 17 20 22 26 35 41 48 46 41 45 25 39 50 55 54 53 52 50 49 48 47 46 45 44 41 41 40 39 37 36 34 33 32 32 32 32 29 30 31 31 28 27
26 20 17 18 20 23 24 33 42 44 43 40 45 43 31 48 53 50 50 47 48 46 46 46 45 43 42 40 39 38 37 36 35 33 32 32 32 30 29 30 31 28 26 24 21
27 23 17 20 19 23 29 33 40 41 40 29 34 36 33 41 48 48 46 43 44 44 44 43 43 41 39 37 37 36 36 35 33 32 32 30 31 29 29 25 23 23 23 22 23
26 28 19 17 19 25 30 30 32 34 34 33 36 37 34 39 46 46 44 40 40 42 40 40 40 37 35 36 37 36 33 32 31 30 29 28 26 26 23 23 23 24 24 25 27
22 24 22 18 20 24 25 26 27 33 42 26 40 41 39 42 46 44 42 38 36 38 39 37 34 29 33 36 32 30 29 30 30 28 27 25 24 25 26 26 27 27 29 30 31
33 32 25 24 20 23 24 28 31 25 28 29 40 36 40 45 45 44 41 38 36 35 38 38 36 37 35 36 33 30 28 28 28 26 23 23 24 27 27 27 29 30 30 32 34
35 45 38 26 20 21 32 38 33 31 28 32 39 35 42 45 44 43 40 39 36 34 37 36 35 36 36 29 27 27 27 28 27 25 25 26 27 29 31 29 29 32 35 38 41
48 50 41 23 23 30 32 24 25 32 32 30 30 36 40 42 41 41 40 39 38 36 36 36 33 32 31 30 29 28 27 27 27 28 29 30 27 24 29 33 37 39 41 45 47
41 40 38 31 25 23 30 28 35 37 32 31 31 37 39 40 41 41 40 39 38 36 34 33 32 31 30 29 28 27 27 29 28 27 28 29 31 23 29 32 35 39 44 48 48
35 37 32 29 34 30 29 30 29 27 28 30 32 35 37 36 36 37 37 36 35 33 32 30 28 27 28 28 27 26 26 26 25 27 28 26 28 27 29 30 32 32 31 32 34
27 26 28 22 22 24 26 28 26 20 20 25 25 29 30 30 30 31 33 33 31 30 29 28 28 27 27 25 25 26 25 25 21 21 23 25 27 25 27 26 19 18 20 22 17
32 30 25 26 20 21 21 23 20 18 21 23 24 24 25 25 28 29 30 30 29 29 28 27 26 26 26 26 26 22 19 19 20 21 21 24 27 23 17 16 14 15 15 15 13
32 32 28 26 22 15 19 16 13 16 19 23 23 22 22 23 23 25 26 27 26 26 27 27 25 25 24 22 19 18 18 20 21 18 19 14 11 15 16 13 11 12 14 15 14
38 32 34 30 28 22 18 16 13 13 17 19 20 20 20 20 18 20 21 23 24 24 24 23 22 18 19 18 18 18 20 18 18 15 9 8 12 16 12 4 6 9 11 12 13
35 35 31 29 29 30 27 22 16 15 15 16 15 16 16 16 16 17 18 18 19 18 17 17 17 17 18 19 20 17 16 16 13 11 10 10 15 15 4 9 9 9 10 10 11
30 30 32 33 27 26 24 22 19 18 18 16 15 12 14 14 14 15 15 16 17 17 18 18 19 18 19 19 16 17 16 14 12 12 8 8 16 7 6 10 7 10 10 11 12
24 24 26 28 28 28 22 18 19 20 18 16 13 11 11 10 12 14 14 14 14 16 17 19 19 19 20 20 18 16 14 12 10 8 6 7 14 13 12 10 11 12 12 15 15
19 18 20 21 22 22 22 21 20 17 14 14 13 12 11 10 10 8 9 10 10 11 11 12 14 15 15 15 14 12 12 10 9 10 10 10 15 8 9 12 13 14 17 19 20
18 18 15 15 15 16 17 18 18 16 15 15 13 11 9 9 10 10 9 9 9 9 9 9 10 10 11 11 12 12 13 13 12 12 13 13 13 15 13 14 17 18 19 22 23
15 16 14 13 9 8 10 12 12 12 13 12 11 11 10 10 8 8 8 7 8 9 9 9 10 11 12 13 12 14 15 14 13 16 11 18 11 21 19 20 23 25 24 24 26
15 13 12 11 9 9 6 3 5 6 7 7 7 8 7 6 5 6 6 6 7 7 7 7 7 9 11 12 13 16 17 16 15 18 15 16 19 18 22 26 29 31 29 27 28
11 11 11 9 8 7 7 6 5 2 1 2 3 4 5 6 6 7 7 6 7 8 9 10 11 11 12 14 13 16 21 20 19 20 21 22 25 26 29 30 33 36 34 33 31
Wind_Direction
5 349 269 204 201 196 195 204 205 199 194 197 195 199 200 202 203 201 199 201 205 205 203 203 201 202 205 207 209 212 213 215 219 223 229 235 243 252 261 271 278 285 292 296 294
28 37 53 177 190 190 189 194 197 194 191 191 191 194 198 198 199 199 197 198 202 204 205 206 205 204 206 209 211 214 217 219 224 229 235 241 249 257 265 274 281 289 292 291 290
21 37 45 104 158 177 183 184 189 186 187 187 188 192 195 196 197 197 198 196 199 202 205 206 208 207 208 210 214 217 220 224 227 234 239 246 254 261 268 276 285 287 284 289 289
31 40 60 105 152 164 173 178 180 181 182 181 170 174 194 195 194 194 197 197 197 200 203 205 208 210 211 212 215 220 223 228 232 238 244 251 258 264 272 278 279 274 282 284 281
32 41 70 98 142 152 166 179 177 174 176 179 189 198 180 189 192 192 194 197 197 198 201 204 208 209 215 215 217 221 225 230 235 241 247 254 262 269 274 274 264 272 276 276 276
38 41 81 110 125 152 161 169 167 169 172 172 173 166 176 181 188 190 192 196 197 196 199 204 207 210 214 218 220 223 227 232 238 244 251 258 265 271 270 264 268 273 273 273 272
48 53 82 89 127 141 156 161 164 166 166 174 182 197 162 177 182 186 190 193 197 196 197 202 208 210 214 219 223 226 231 237 241 248 254 261 267 265 259 263 269 273 272 271 263
50 48 98 110 120 142 155 154 164 167 164 154 165 179 176 173 178 184 187 189 194 197 197 199 206 210 214 219 226 231 235 240 244 250 257 259 261 257 266 273 276 278 277 273 265
64 62 86 109 119 138 138 147 159 159 156 169 168 176 172 172 177 180 184 187 190 195 196 198 204 209 213 220 226 230 236 243 248 250 249 255 255 263 270 278 285 285 281 276 272
66 71 79 84 116 133 137 142 152 164 165 144 155 166 173 171 173 177 181 182 186 192 195 193 194 203 214 222 228 229 233 241 240 241 247 249 256 265 273 279 280 277 275 272 270
70 79 84 77 109 129 137 132 132 147 165 148 153 159 166 168 170 176 178 181 181 185 189 187 197 208 213 218 225 229 231 231 236 237 244 255 266 272 275 274 272 271 271 272 274
80 82 79 75 112 133 137 128 120 152 152 138 152 155 161 164 170 174 179 180 180 182 185 189 191 199 204 203 206 215 222 226 230 239 250 260 263 266 272 274 277 279 282 283 283
71 74 74 83 118 130 116 109 122 145 143 146 156 158 157 162 170 174 179 181 183 182 185 188 188 193 193 198 204 209 215 225 236 245 251 256 264 278 281 284 285 287 288 287 284
70 77 87 89 104 114 104 100 117 128 144 150 157 157 158 163 171 176 179 183 185 189 189 194 193 193 197 201 209 218 227 235 243 250 258 266 269 278 280 282 285 287 287 285 284
65 62 59 91 87 90 97 103 106 117 136 141 146 151 161 167 169 175 181 184 187 191 196 201 204 205 209 214 220 226 233 241 249 258 268 274 279 285 286 287 290 294 299 300 285
60 49 60 68 75 88 90 94 98 112 136 149 145 149 156 161 170 178 182 185 188 190 195 202 207 211 215 218 225 231 239 249 259 269 275 281 285 288 289 291 296 322 337 341 313
54 54 62 69 80 103 105 104 97 107 121 134 145 151 155 164 170 174 182 185 188 192 197 202 209 213 219 223 231 241 246 252 267 278 286 287 288 285 279 293 302 313 330 330 325
56 60 65 72 74 101 101 112 113 111 120 123 132 140 150 158 168 175 180 184 188 194 201 206 214 222 228 229 229 237 248 267 279 289 289 284 285 284 289 287 287 302 305 304 299
56 60 66 77 78 93 109 110 121 121 127 126 129 135 142 150 158 164 172 182 190 196 202 207 208 211 216 226 234 250 266 274 283 286 260 261 275 290 300 295 283 290 287 278 275
57 59 65 71 81 84 86 97 108 114 125 143 142 141 147 150 156 165 170 176 181 185 190 199 212 222 230 238 250 259 264 274 270 265 260 255 266 278 297 316 299 307 318 320 312
56 56 63 69 75 80 88 88 90 105 112 121 140 158 165 172 176 179 186 189 195 203 212 221 228 235 241 245 249 259 258 255 261 272 266 221 249 254 291 289 308 313 323 325 319
50 55 60 65 70 74 82 88 94 97 101 114 117 123 141 166 185 193 199 206 217 224 230 236 238 239 244 248 248 248 241 249 254 251 254 242 250 254 269 290 306 315 313 308 311
51 56 58 65 69 74 80 82 86 91 102 111 118 123 133 141 151 162 183 198 207 211 216 224 226 224 229 232 238 234 247 241 238 242 249 245 264 270 284 297 306 305 305 303 302
47 51 57 60 68 77 80 86 91 92 95 98 104 116 134 148 160 169 182 191 202 211 215 218 215 214 216 215 219 234 238 238 239 245 251 271 281 293 298 298 300 303 296 298 300
42 46 48 57 66 69 80 91 91 95 99 101 108 121 131 141 151 160 171 183 196 202 205 207 211 212 219 224 225 233 240 241 245 254 264 268 292 293 304 301 297 292 292 297 299
17 30 45 46 46 55 68 72 86 107 107 114 121 123 122 128 144 164 176 186 189 194 202 214 222 226 240 234 235 243 253 259 264 272 279 284 281 296 293 292 288 292 293 290 293
359 358 8 23 42 30 24 34 58 65 254 205 187 178 178 181 184 188 197 206 217 220 220 226 231 238 238 251 242 251 262 277 284 282 283 287 289 293 290 291 291 291 292 291 292